Location: Dos Palmas
(32.4468°N, 116.8732°W)
Time: 04:50:59
(UTC+00:00)

CZ-2C R/B - Pass Details

Date: 20 June 2021
Orbit: 389 x 579 km, 35.0° (Epoch: 29 July)

Event Time Altitude Azimuth Distance (km) Brightness Sun altitude
Exits shadow 11:39:33 19° 239° (WSW) 1,093 2.2 -11.6°
Maximum altitude 11:41:51 63° 162° (SSE) 470 0.9 -11.2°
Drops below altitude 10° 11:45:07 10° 80° (E) 1,457 4.6 -10.7°
Sets 11:47:11 0° 77° (ENE) 2,297 5.9 -10.3°
